User: anonymous   Login
Location: Penticton
(49.5000°N, 119.5830°W)
Time: 22:39:25
(UTC-08:00)
Language:

NOSS 3-4 (A) - Orbit

View from above orbital plane
View from above orbital plane
View from above satellite
View from above satellite

Ground track
Ground track

The orbit data is extracted from the following two-line orbital elements,

1 31701U 07027A   14328.76192590 0.00000000  00000-0  00000-0 0    08
2 31701  63.4030 307.2730 0114000  34.7122 325.2878 13.40659371    01
Epoch (UTC): 24 November 2014 18:17:10
Eccentricity: 0.0114000
inclination: 63.4030°
perigee height: 1021 km
apogee height: 1192 km
right ascension of ascending node: 307.2730°
argument of perigee: 34.7122°
revolutions per day: 13.40659371
mean anomaly at epoch: 325.2878°
orbit number at epoch: 0

The dashed part of the orbit path shows where the satellite is in the earth's shadow,  

DLR